Time,TemperatureF,DewpointF,PressureIn,WindDirection,WindDirectionDegrees,WindSpeedMPH,WindSpeedGustMPH,Humidity,HourlyPrecipIn,Conditions,Clouds,dailyrainin,SoftwareType,DateUTC
2013-01-28 00:06:00,28.7,27.0,30.41,North,0,0.0,-999.0,92,-99.99,,,0.01,weatherlink.com 1.10,2013-01-28 05:06:00,
2013-01-28 00:21:00,28.2,26.0,30.41,North,0,0.0,-999.0,92,-99.99,,,0.00,weatherlink.com 1.10,2013-01-28 05:21:00,
2013-01-28 00:36:00,27.9,26.0,30.40,North,0,0.0,-999.0,91,-99.99,,,0.00,weatherlink.com 1.10,2013-01-28 05:36:00,
2013-01-28 00:51:00,28.1,26.0,30.40,North,0,0.0,-999.0,92,-99.99,,,0.00,weatherlink.com 1.10,2013-01-28 05:51:00,
2013-01-28 01:06:00,28.2,27.0,30.39,North,0,0.0,-999.0,93,-99.99,,,0.00,weatherlink.com 1.10,2013-01-28 06:06:00,
2013-01-28 01:21:00,28.4,27.0,30.40,North,0,0.0,-999.0,93,-99.99,,,0.00,weatherlink.com 1.10,2013-01-28 06:21:00,
2013-01-28 01:36:00,28.4,27.0,30.40,North,0,0.0,-999.0,93,-99.99,,,0.00,weatherlink.com 1.10,2013-01-28 06:36:00,
2013-01-28 01:51:00,28.8,27.0,30.39,North,0,0.0,-999.0,94,-99.99,,,0.00,weatherlink.com 1.10,2013-01-28 06:51:00,
2013-01-28 02:21:00,29.1,28.0,30.38,North,0,0.0,-999.0,94,-99.99,,,0.00,weatherlink.com 1.10,2013-01-28 07:21:00,
2013-01-28 02:36:00,29.1,28.0,30.38,North,359,0.0,-999.0,94,-99.99,,,0.00,weatherlink.com 1.10,2013-01-28 07:36:00,
2013-01-28 02:51:00,29.1,28.0,30.37,North,359,0.0,-999.0,94,-99.99,,,0.00,weatherlink.com 1.10,2013-01-28 07:51:00,
2013-01-28 03:06:00,29.4,28.0,30.39,North,359,0.0,-999.0,95,-99.99,,,0.00,weatherlink.com 1.10,2013-01-28 08:06:00,
2013-01-28 03:21:00,29.3,28.0,30.37,North,0,0.0,-999.0,94,-99.99,,,0.00,weatherlink.com 1.10,2013-01-28 08:21:00,
2013-01-28 03:37:00,29.1,28.0,30.38,North,359,0.0,-999.0,95,-99.99,,,0.00,weatherlink.com 1.10,2013-01-28 08:37:00,
2013-01-28 03:51:00,29.3,28.0,30.38,North,359,0.0,-999.0,95,-99.99,,,0.00,weatherlink.com 1.10,2013-01-28 08:51:00,
2013-01-28 04:06:00,29.3,28.0,30.37,North,0,0.0,-999.0,95,-99.99,,,0.00,weatherlink.com 1.10,2013-01-28 09:06:00,
2013-01-28 04:21:00,29.3,28.0,30.37,North,0,0.0,-999.0,95,-99.99,,,0.00,weatherlink.com 1.10,2013-01-28 09:21:00,
2013-01-28 04:37:00,28.8,28.0,30.38,North,0,0.0,-999.0,95,-99.99,,,0.00,weatherlink.com 1.10,2013-01-28 09:37:00,
2013-01-28 04:51:00,28.5,27.0,30.38,North,0,0.0,-999.0,95,-99.99,,,0.00,weatherlink.com 1.10,2013-01-28 09:51:00,
2013-01-28 05:06:00,28.4,27.0,30.38,North,0,0.0,-999.0,96,-99.99,,,0.00,weatherlink.com 1.10,2013-01-28 10:06:00,
2013-01-28 05:21:00,28.5,28.0,30.38,North,0,0.0,-999.0,96,-99.99,,,0.00,weatherlink.com 1.10,2013-01-28 10:21:00,
2013-01-28 05:36:00,28.7,28.0,30.38,North,0,0.0,-999.0,96,-99.99,,,0.00,weatherlink.com 1.10,2013-01-28 10:36:00,
2013-01-28 05:51:00,28.8,28.0,30.38,North,0,0.0,-999.0,96,-99.99,,,0.00,weatherlink.com 1.10,2013-01-28 10:51:00,
2013-01-28 06:06:00,29.1,28.0,30.38,North,0,0.0,-999.0,96,-99.99,,,0.00,weatherlink.com 1.10,2013-01-28 11:06:00,
2013-01-28 06:21:00,29.3,28.0,30.39,North,0,0.0,-999.0,96,-99.99,,,0.00,weatherlink.com 1.10,2013-01-28 11:21:00,
2013-01-28 06:36:00,29.5,29.0,30.39,North,359,0.0,-999.0,96,-99.99,,,0.00,weatherlink.com 1.10,2013-01-28 11:36:00,
2013-01-28 06:52:00,29.5,29.0,30.39,North,359,0.0,-999.0,96,-99.99,,,0.00,weatherlink.com 1.10,2013-01-28 11:52:00,
2013-01-28 07:06:00,29.5,29.0,30.39,North,0,0.0,-999.0,96,-99.99,,,0.00,weatherlink.com 1.10,2013-01-28 12:06:00,
2013-01-28 07:21:00,29.4,28.0,30.39,SSW,205,0.0,-999.0,96,-99.99,,,0.00,weatherlink.com 1.10,2013-01-28 12:21:00,
2013-01-28 07:37:00,29.7,29.0,30.41,SW,230,0.0,-999.0,97,-99.99,,,0.00,weatherlink.com 1.10,2013-01-28 12:37:00,
2013-01-28 07:52:00,30.1,29.0,30.40,South,176,0.0,-999.0,97,-99.99,,,0.00,weatherlink.com 1.10,2013-01-28 12:52:00,
2013-01-28 08:07:00,31.0,31.0,30.40,South,185,0.0,-999.0,98,-99.99,,,0.00,weatherlink.com 1.10,2013-01-28 13:07:00,
2013-01-28 08:22:00,32.1,32.0,30.40,SSW,200,0.0,-999.0,98,-99.99,,,0.00,weatherlink.com 1.10,2013-01-28 13:22:00,
2013-01-28 08:37:00,33.5,34.0,30.39,SSW,200,0.0,-999.0,100,-99.99,,,0.00,weatherlink.com 1.10,2013-01-28 13:37:00,
2013-01-28 08:52:00,35.5,36.0,30.38,SW,224,0.0,-999.0,100,-99.99,,,0.00,weatherlink.com 1.10,2013-01-28 13:52:00,
2013-01-28 09:07:00,35.8,36.0,30.38,SW,232,0.0,-999.0,99,-99.99,,,0.00,weatherlink.com 1.10,2013-01-28 14:07:00,
2013-01-28 09:22:00,35.9,35.0,30.37,WNW,289,0.0,-999.0,98,-99.99,,,0.00,weatherlink.com 1.10,2013-01-28 14:22:00,
2013-01-28 09:37:00,38.3,38.0,30.37,SW,229,0.0,-999.0,99,-99.99,,,0.01,weatherlink.com 1.10,2013-01-28 14:37:00,
2013-01-28 09:52:00,41.1,40.0,30.35,SSE,152,0.0,-999.0,94,-99.99,,,0.03,weatherlink.com 1.10,2013-01-28 14:52:00,
2013-01-28 10:07:00,43.9,41.0,30.33,SSE,152,0.0,-999.0,88,-99.99,,,0.05,weatherlink.com 1.10,2013-01-28 15:07:00,
2013-01-28 10:22:00,47.1,42.0,30.32,West,271,0.0,-999.0,81,-99.99,,,0.06,weatherlink.com 1.10,2013-01-28 15:22:00,
2013-01-28 10:37:00,50.5,42.0,30.31,SW,224,0.0,-999.0,73,-99.99,,,0.08,weatherlink.com 1.10,2013-01-28 15:37:00,
2013-01-28 10:52:00,52.9,43.0,30.29,SW,219,0.0,-999.0,69,-99.99,,,0.09,weatherlink.com 1.10,2013-01-28 15:52:00,
2013-01-28 11:07:00,53.3,41.0,30.28,East,97,0.0,-999.0,63,-99.99,,,0.11,weatherlink.com 1.10,2013-01-28 16:07:00,
2013-01-28 11:22:00,53.9,42.0,30.27,SE,131,0.0,-999.0,65,-99.99,,,0.12,weatherlink.com 1.10,2013-01-28 16:22:00,
2013-01-28 11:37:00,55.3,41.0,30.26,ENE,73,0.0,-999.0,60,-99.99,,,0.14,weatherlink.com 1.10,2013-01-28 16:37:00,
2013-01-28 11:52:00,52.3,41.0,30.26,ESE,120,0.0,-999.0,66,-99.99,,,0.15,weatherlink.com 1.10,2013-01-28 16:52:00,
2013-01-28 12:07:00,52.9,42.0,30.27,East,88,1.0,-999.0,66,-99.99,,,0.16,weatherlink.com 1.10,2013-01-28 17:07:00,
2013-01-28 12:22:00,51.0,40.0,30.25,NE,55,3.0,-999.0,65,-99.99,,,0.17,weatherlink.com 1.10,2013-01-28 17:22:00,
2013-01-28 12:38:00,50.2,39.0,30.25,East,89,0.0,-999.0,66,-99.99,,,0.18,weatherlink.com 1.10,2013-01-28 17:38:00,
2013-01-28 12:52:00,50.5,39.0,30.24,ENE,73,1.0,-999.0,64,-99.99,,,0.19,weatherlink.com 1.10,2013-01-28 17:52:00,
2013-01-28 13:07:00,51.3,40.0,30.23,East,88,1.0,-999.0,66,-99.99,,,0.19,weatherlink.com 1.10,2013-01-28 18:07:00,
2013-01-28 13:23:00,52.0,39.0,30.21,ENE,64,0.0,-999.0,62,-99.99,,,0.20,weatherlink.com 1.10,2013-01-28 18:23:00,
2013-01-28 13:38:00,51.9,40.0,30.21,ENE,71,0.0,-999.0,65,-99.99,,,0.20,weatherlink.com 1.10,2013-01-28 18:38:00,
2013-01-28 13:53:00,52.0,39.0,30.20,ENE,65,0.0,-999.0,62,-99.99,,,0.21,weatherlink.com 1.10,2013-01-28 18:53:00,
2013-01-28 14:08:00,52.0,40.0,30.19,NNE,20,1.0,-999.0,63,-99.99,,,0.21,weatherlink.com 1.10,2013-01-28 19:08:00,
2013-01-28 14:23:00,52.3,39.0,30.19,East,79,0.0,-999.0,62,-99.99,,,0.21,weatherlink.com 1.10,2013-01-28 19:23:00,
2013-01-28 14:39:00,52.8,40.0,30.17,ENE,72,0.0,-999.0,62,-99.99,,,0.21,weatherlink.com 1.10,2013-01-28 19:39:00,
2013-01-28 14:53:00,52.6,40.0,30.16,ENE,59,1.0,-999.0,62,-99.99,,,0.21,weatherlink.com 1.10,2013-01-28 19:53:00,
2013-01-28 15:08:00,52.3,40.0,30.17,North,0,0.0,-999.0,63,-99.99,,,0.21,weatherlink.com 1.10,2013-01-28 20:08:00,
2013-01-28 15:23:00,52.0,39.0,30.17,ENE,71,0.0,-999.0,62,-99.99,,,0.21,weatherlink.com 1.10,2013-01-28 20:23:00,
2013-01-28 15:38:00,51.3,39.0,30.18,ENE,71,0.0,-999.0,64,-99.99,,,0.21,weatherlink.com 1.10,2013-01-28 20:38:00,
2013-01-28 15:53:00,50.5,39.0,30.18,ENE,71,0.0,-999.0,65,-99.99,,,0.21,weatherlink.com 1.10,2013-01-28 20:53:00,
2013-01-28 16:08:00,49.8,39.0,30.18,ENE,71,0.0,-999.0,66,-99.99,,,0.21,weatherlink.com 1.10,2013-01-28 21:08:00,
2013-01-28 16:23:00,49.5,39.0,30.19,ENE,71,0.0,-999.0,67,-99.99,,,0.21,weatherlink.com 1.10,2013-01-28 21:23:00,
2013-01-28 16:38:00,48.8,39.0,30.19,ENE,71,0.0,-999.0,68,-99.99,,,0.21,weatherlink.com 1.10,2013-01-28 21:38:00,
2013-01-28 16:53:00,47.7,38.0,30.19,ENE,71,0.0,-999.0,70,-99.99,,,0.21,weatherlink.com 1.10,2013-01-28 21:53:00,
2013-01-28 17:08:00,46.5,38.0,30.20,ENE,71,0.0,-999.0,72,-99.99,,,0.21,weatherlink.com 1.10,2013-01-28 22:08:00,
2013-01-28 17:23:00,45.2,37.0,30.21,East,85,0.0,-999.0,74,-99.99,,,0.21,weatherlink.com 1.10,2013-01-28 22:23:00,
2013-01-28 17:38:00,44.3,38.0,30.21,SE,144,0.0,-999.0,77,-99.99,,,0.21,weatherlink.com 1.10,2013-01-28 22:38:00,
2013-01-28 17:53:00,43.1,37.0,30.23,SE,144,0.0,-999.0,79,-99.99,,,0.21,weatherlink.com 1.10,2013-01-28 22:53:00,
2013-01-28 18:08:00,42.2,37.0,30.23,SE,144,0.0,-999.0,82,-99.99,,,0.21,weatherlink.com 1.10,2013-01-28 23:08:00,
2013-01-28 18:23:00,41.5,37.0,30.24,SE,144,0.0,-999.0,83,-99.99,,,0.21,weatherlink.com 1.10,2013-01-28 23:23:00,
2013-01-28 18:38:00,40.9,37.0,30.24,SE,144,0.0,-999.0,85,-99.99,,,0.21,weatherlink.com 1.10,2013-01-28 23:38:00,
2013-01-28 18:53:00,40.6,37.0,30.24,SE,144,0.0,-999.0,86,-99.99,,,0.21,weatherlink.com 1.10,2013-01-28 23:53:00,
2013-01-28 19:08:00,40.9,37.0,30.25,SE,144,0.0,-999.0,87,-99.99,,,0.21,weatherlink.com 1.10,2013-01-29 00:08:00,
2013-01-28 19:23:00,40.3,37.0,30.25,SE,144,0.0,-999.0,88,-99.99,,,0.21,weatherlink.com 1.10,2013-01-29 00:23:00,
2013-01-28 19:38:00,40.2,38.0,30.24,SE,144,0.0,-999.0,90,-99.99,,,0.21,weatherlink.com 1.10,2013-01-29 00:38:00,
2013-01-28 19:53:00,40.2,38.0,30.24,SE,144,0.0,-999.0,90,-99.99,,,0.21,weatherlink.com 1.10,2013-01-29 00:53:00,
2013-01-28 20:08:00,40.2,38.0,30.24,SE,144,0.0,-999.0,91,-99.99,,,0.21,weatherlink.com 1.10,2013-01-29 01:08:00,
2013-01-28 20:23:00,39.9,38.0,30.24,SE,144,0.0,-999.0,91,-99.99,,,0.21,weatherlink.com 1.10,2013-01-29 01:23:00,
2013-01-28 20:38:00,39.8,38.0,30.23,SE,144,0.0,-999.0,93,-99.99,,,0.21,weatherlink.com 1.10,2013-01-29 01:38:00,
2013-01-28 20:53:00,39.2,37.0,30.22,SE,144,0.0,-999.0,91,-99.99,,,0.21,weatherlink.com 1.10,2013-01-29 01:53:00,
2013-01-28 21:08:00,39.1,37.0,30.24,SW,223,1.0,-999.0,93,-99.99,,,0.21,weatherlink.com 1.10,2013-01-29 02:08:00,
2013-01-28 21:23:00,42.3,40.0,30.23,SW,229,0.0,-999.0,92,-99.99,,,0.21,weatherlink.com 1.10,2013-01-29 02:23:00,
2013-01-28 21:38:00,43.3,40.0,30.18,SSW,206,0.0,-999.0,89,-99.99,,,0.21,weatherlink.com 1.10,2013-01-29 02:38:00,
2013-01-28 21:53:00,45.7,41.0,30.17,SW,217,1.0,-999.0,84,-99.99,,,0.21,weatherlink.com 1.10,2013-01-29 02:53:00,
2013-01-28 22:08:00,45.7,41.0,30.16,WSW,243,0.0,-999.0,83,-99.99,,,0.21,weatherlink.com 1.10,2013-01-29 03:08:00,
2013-01-28 22:23:00,46.0,41.0,30.15,South,179,1.0,-999.0,82,-99.99,,,0.21,weatherlink.com 1.10,2013-01-29 03:23:00,
2013-01-28 22:38:00,45.8,41.0,30.12,SSW,200,0.0,-999.0,82,-99.99,,,0.21,weatherlink.com 1.10,2013-01-29 03:38:00,
2013-01-28 22:53:00,46.1,41.0,30.12,SW,215,2.0,-999.0,81,-99.99,,,0.21,weatherlink.com 1.10,2013-01-29 03:53:00,
2013-01-28 23:08:00,46.1,40.0,30.12,SSW,200,1.0,-999.0,80,-99.99,,,0.21,weatherlink.com 1.10,2013-01-29 04:08:00,
2013-01-28 23:23:00,46.4,41.0,30.12,SW,215,3.0,-999.0,80,-99.99,,,0.21,weatherlink.com 1.10,2013-01-29 04:23:00,
2013-01-28 23:38:00,46.7,40.0,30.11,SSW,206,0.0,-999.0,78,-99.99,,,0.21,weatherlink.com 1.10,2013-01-29 04:38:00,
2013-01-28 23:53:00,46.7,40.0,30.12,SSW,199,2.0,-999.0,77,-99.99,,,0.21,weatherlink.com 1.10,2013-01-29 04:53:00,